Terug naar catalogus

STARLINK-33940

ActiefCommunicatieVLEO
NORAD 63831·PAYLOAD·🇺🇸 United States

Gelanceerd May 4, 2025 vanaf Cape Canaveral Space Force Station

Loading…

Volgende Passages (komende 24 uur)

TLE

VersSource: CelesTrak SupGP

Epoch: Sep 14, 2026, 22:23 UTC

1 63831C 25092AD  26257.93312500 -.00044310  00000+0 -16049-2 0  2576
2 63831  43.0024 183.8533 0001214 267.6478 191.2221 15.27600632    16

Volg STARLINK-33940 in realtime met AllMySat

Download on the App Store